Terug naar catalogus

DELTA 1 DEB

ActiefSSO
NORAD 14463·DEBRIS·🇺🇸 United States

Gelanceerd Mar 5, 1978 vanaf Vandenberg Space Force Base

Loading…

Volgende Passages (komende 24 uur)

TLE

VersSource: Space-Track

Epoch: Sep 14, 2026, 10:43 UTC

1 14463U 78026GD  26257.44680527  .00000619  00000-0  29866-3 0  9999
2 14463  98.8616 152.2502 0119209 123.7084 289.7632 14.18544787310619

Volg DELTA 1 DEB in realtime met AllMySat

Download on the App Store